Location: Ferris
(32.5340°N, 96.6656°W)
Time: 23:22:29
(UTC+00:00)

Cosmos 1354 Rocket - Pass Details

Date: 19 May 2026
Orbit: 761 x 778 km, 74.0° (Epoch: 7 June)

Event Time Altitude Azimuth Distance (km) Brightness Sun altitude
Rises 04:35:29 0° 339° (NNW) 3,230 8.3 -31.7°
Reaches altitude 10° 04:37:53 10° 337° (NNW) 2,299 7.3 -32.0°
Enters shadow 04:41:34 44° 317° (NW) 1,042 4.9 -32.3°
